Regional Weather Roundup
Issued by NWS Midland/Odessa, TX

Skip options and go directly to product.
Home | Oldest Version | Next Version | Current Version | All | Text Only | Save Text | Print | Product List | Glossary On

Skip product version selection by date and time.   
124
ASUS44 KMAF 010101
RWRMAF
MIDLAND AREA WEATHER ROUNDUP
NATIONAL WEATHER SERVICE MIDLAND TX
700 PM CST SAT FEB 28 2015

...IN SOUTHWEST TEXAS AND SOUTHEAST NEW MEXICO...

CITY           SKY/WX    TMP DP  RH WIND       PRES   REMARKS
ALPINE         CLEAR     43  35  72 NE5       30.08S
ANDREWS        FOG       29  29 100 E7        30.12R VSB 1/2 WCI  22
ARTESIA        CLOUDY    30  28  93 SE10      30.07S WCI  21
BIG SPRING     CLOUDY    29  27  92 NE6       30.18R WCI  23
CARLSBAD       CLOUDY    31  27  85 SE10      30.08R WCI  22
DRYDEN           N/A     38  37  97 E7        30.12R WCI  33
FORT STOCKTON  CLOUDY    37  35  92 SE13      30.07R WCI  29
GUAD PASS      NOT AVBL
HOBBS          CLOUDY    28  28 100 SE5       30.09R FOG     WCI  23
MARFA          CLEAR     55  30  38 SE8       30.02S
MIDLAND AIRPK  FOG       32  32 100 E5        30.14R VSB 1   WCI  27
MIDLAND INTL   FOG       31  30  96 E10       30.12R VSB 3/4 WCI  22
ODESSA         FOG       31  29  92 SE10      30.11R VSB 3/4 WCI  22
PECOS          CLOUDY    32  31  96 CALM      30.11R FOG
PRESIDIO       FAIR      62  36  37 NE14      29.94S
SEMINOLE       CLOUDY   N/A N/A N/A SE5       30.12S FOG
SNYDER         CLOUDY    26  26  96 E5        30.19R FOG     WCI  21
WINK           CLOUDY    36  29  75 SE10      30.09R WCI  28
$$
...OTHER STATIONS IN TEXAS...

CITY           SKY/WX    TMP DP  RH WIND       PRES   REMARKS
ABILENE        CLOUDY    28  26  92 E6        30.23R FOG     WCI  22
AMARILLO       CLOUDY    22  19  89 S12       30.11R WCI  10
AUSTIN         DRIZZLE   35  35 100 N10       30.25S FOG     WCI  27
BROWNSVILLE    CLOUDY    50  49  96 NW6       30.13S
CORPUS CHRISTI LGT RAIN  54  53  97 N14       30.13S FOG
DALLAS FTW     FRZ DRZL  31  29  92 N7        30.31S FOG     WCI  24
DEL RIO        CLOUDY    44  40  85 SE6       30.17R
EL PASO        PTCLDY    67  28  23 VRB5      29.88R
HOUSTON INT    LGT RAIN  53  48  83 NE6       30.22S
LUBBOCK        FOG       24  23  96 SE7       30.13R VSB 1/2 WCI  16
SAN ANGELO     CLOUDY    30  29  96 E9        30.19S FOG     WCI  22
SAN ANTONIO    DRIZZLE   37  35  92 NE8       30.20S FOG     WCI  31
WACO           CLOUDY    33  31  92 N8        30.29F FOG     WCI  26
WICHITA FALLS  NOT AVBL
$$
...OTHER LOCATIONS IN NEW MEXICO...

CITY           SKY/WX    TMP DP  RH WIND       PRES   REMARKS
ALAMAGORDO     MOCLDY    59  28  31 SE14      29.91S
ALBUQUERQUE    MOCLDY    35  26  69 N12       29.92R WCI  27
CANNON AFB     CLOUDY    26  24  91 S12       30.02F WCI  16
CLOVIS         CLOUDY    25  23  93 S12       30.03F WCI  14
HOLLOMAN AFB   MOCLDY    61  28  28 SE10      29.89R
ROSWELL        CLOUDY    29  24  82 SW5       30.05S WCI  24
RUIDOSO        PTCLDY    45  28  53 SW17G26   29.99R WCI  37
SANTA FE       CLOUDY    32  27  81 N3        29.92R
TRUTH OR CONSE CLOUDY    60  35  39 SW16G23   29.87R
TUCUMCARI      CLOUDY    25  21  85 SW8       30.02S WCI  16
$$

USA.gov is the U.S. government's official web portal to all federal, state and local government web resources and services.